SCOUT B DEB, 28794

Orbit data source: Space-Track

SCOUT B DEB, 28794 is space debris in LEO originally from a launch on Tue, 10 Aug 1965 UTC launched from the Wallops Island (WLPIS). Debris objects in space refer to the collection of defunct objects orbiting the Earth. Examples of debris include non-operational satellites, rocket bodies, and fragments generated from explosions, collisions, or faulty payload assembly.

Loading next visibility...
Identifier
28794, 1965-063D
Orbit
LEO
Last TLE update
10 months ago
Origin
Manufacturer
Unknown
Mission
Spacecraft
Bus & Motor
Unknown
Mass
Unknown
Launch date (UTC)
1965-08-10 (60 years ago)
Launch vehicle
Unknown
Launch site
Wallops Island (WLPIS)
Object type
Payload
Rocket body
Debris
Shape & HBR
Unknown
Radar Cross Section
Small (<0.1 m²)

Expand to show TLE details & history

TLE from 10 months ago
0 SCOUT B DEB
1 28794U 65063D   24183.22798148  .00000130  00000-0  11269-2 0  9994
2 28794  69.2245 175.1450 0775329 345.8079  24.3375 11.81174033884500
Epoch: 2024-07-01T05:28Z
Definitive object data (Epoch: 2024-07-01T05:28:17.599Z)
Latitude
13.20007°
Longitude
178.38529°
Altitude
1,201.46 km
Speed
7.502 km/s
True Right ascension
12h 00m 53s
True Declination
13° 07' 42"
Sunlit
Object was in daylight at TLE epoch
Visualization TLE readout
Latitude
35.32354°
Longitude
74.09905°
Altitude
1,408.346 km
Speed
7.317 km/s
Apparent Right ascension
08h 04m 37s
Apparent Declination
3° 40' 52"
Sunlit
Object is in daylight
Visualization observer readout
Local Sidereal Time
00:33:08
Azimuth
72.036° E
Elevation
-14.85°
Doppler factor
1
Orbital elements
Apogee altitude
2,395.9 km
Perigee altitude
1,133.245 km
Semi-major axis
8,142.71 km
Eccentricity
0.0775329
Inclination
69.2245°
RAAN
175.145°
Arg. of periapsis
345.8079°
True anomaly
28.34873°
Mean anomaly
24.3375°
Eccentric anomaly
26.30619°
Mean motion
2.95386 °/min
BSTAR
0.0011269
Orbital period
121.87 mins
Loading maneuver chart data...
Loading SW <> Apogee altitude chart data...
Loading historical data...
Loading historical data...
Loading historical data...
Loading historical data...
Loading historical data...
Loading historical data...
Loading historical data...

SCOUT B DEB Visibility forecast

Observer location: undefined°, undefined°

Span
Click to sort rows by Start time (UTC) header in descending order
Start Az.
Max El. time (UTC)
Max El. Az.
Max El.
End time (UTC)
End Az.
15 mins2025-05-09 20:18:40.394Z185.147° SSW2025-05-09 20:27:40.394Z99.295° ESE39.986°2025-05-09 20:33:40.394Z36.127° NE
12 mins2025-05-09 22:26:40.394Z254.196° W2025-05-09 22:32:40.394Z307.553° NW26.21°2025-05-09 22:38:40.394Z6.069° NNE
10 mins2025-05-10 04:56:40.394Z6.982° NNE2025-05-10 05:00:40.394Z52.638° ENE24.77°2025-05-10 05:06:40.394Z106.066° ESE
13 mins2025-05-10 07:00:40.394Z321.453° NNW2025-05-10 07:05:40.394Z258.377° W39.854°2025-05-10 07:13:40.394Z175.055° S
|